Voltar ao catálogo

KUIPER-00077

AtivoComunicaçõesLEO
NORAD 64824·PAYLOAD·🇺🇸 United States

Lançado Jul 16, 2025 de Cape Canaveral Space Force Station

Loading…

Próximas Passagens (próximas 24 horas)

TLE

AtualizadoSource: CelesTrak SupGP

Época: Sep 14, 2026, 21:16 UTC

1 64824C 25151J   26257.88668982 -.00017547  00000+0 -22973-2 0  2572
2 64824  51.9002 181.4946 0001078  79.4713 135.9124 14.79941653    18

Acompanhe KUIPER-00077 em tempo real com AllMySat

Download on the App Store